Weather History for Abilene Dyess, TX

Change the Weather History Date:

Tuesday, April 8, 2014

  Actual Average Record
Temperature  
Mean Temperature 61 °F -  
Max Temperature 78 °F 72 °F 96 °F (2011)
Min Temperature 44 °F 49 °F 35 °F (1997)
Degree Days  
Heating Degree Days 4    
Growing Degree Days 11 (Base 50)    
Moisture  
Dew Point 29 °F    
Average Humidity 30    
Maximum Humidity 62    
Minimum Humidity 15    
Precipitation  
Precipitation 0.00 in - - ()
Sea Level Pressure  
Sea Level Pressure 30.14 in    
Wind  
Wind Speed 13 mph (NW)    
Max Wind Speed 22 mph    
Max Gust Speed 32 mph    
Visibility 10 miles    
Events      
Averages and records for this station are not official NWS values.
T = Trace of Precipitation, MM = Missing Value Source: NWS Daily Summary

Daily Weather History Graph

Daily Weather History Graph

Search for Another Location

Airport:

Trip Planner

Search our weather history database for the weather conditions in past years. The results will help you decide how hot, cold, wet, or windy it might be!

Date:

Astronomy

Apr. 08, 2014 Rise Set
Actual Time 7:18 AM CDT 8:04 PM CDT
Civil Twilight 6:53 AM CDT 8:29 PM CDT
Nautical Twilight 6:24 AM CDT 8:58 PM CDT
Astronomical Twilight 5:54 AM CDT 9:28 PM CDT
Moon 2:18 PM CDT (4/8) 3:12 AM CDT (4/8)
Length of Visible Light 13h 35m
Length of Day
12h 45m
Waxing Gibbous, 63% of the Moon is Illuminated
Apr 8
Waxing Gibbous
Apr 15
Full
Apr 22
Last Quarter
Apr 29
New
May 6
First Quarter

Hourly Weather History & Observations

Time (CDT) Temp. Windchill Dew Point Humidity Pressure Visibility Wind Dir Wind Speed Gust Speed Precip Events Conditions
12:58 AM 50.4 °F - 36.5 °F 59% 30.06 in 10.0 mi WNW 11.5 mph - N/A   Clear
1:58 AM 51.6 °F - 32.5 °F 48% 30.08 in 10.0 mi NNW 12.7 mph - N/A   Clear
2:58 AM 48.2 °F - 32.9 °F 55% 30.10 in 10.0 mi NW 9.2 mph - N/A   Clear
3:58 AM 46.8 °F - 32.5 °F 58% 30.12 in 10.0 mi WNW 11.5 mph - N/A   Clear
4:58 AM 46.4 °F 41.5 °F 32.5 °F 59% 30.14 in 10.0 mi NW 10.4 mph - N/A   Partly Cloudy
5:58 AM 44.4 °F 39.5 °F 32.0 °F 62% 30.16 in 10.0 mi WNW 9.2 mph - N/A   Clear
6:58 AM 44.4 °F 39.5 °F 30.6 °F 58% 30.18 in 10.0 mi West 9.2 mph - N/A   Clear
7:58 AM 44.1 °F 39.0 °F 30.7 °F 59% 30.21 in 10.0 mi WNW 9.2 mph - N/A   Clear
8:58 AM 50.2 °F - 32.4 °F 50% 30.21 in 10.0 mi NW 13.8 mph - N/A   Clear
9:58 AM 57.4 °F - 31.3 °F 37% 30.20 in 10.0 mi North 16.1 mph - N/A   Clear
10:58 AM 62.1 °F - 27.7 °F 27% 30.21 in 10.0 mi NNW 16.1 mph - N/A   Clear
11:58 AM 65.8 °F - 27.0 °F 23% 30.20 in 10.0 mi NNW 13.8 mph 25.3 mph N/A   Clear
12:49 PM 68.0 °F - 28.4 °F 23% 30.23 in 10.0 mi North 15.0 mph 20.7 mph N/A   Light Drizzle
12:53 PM 68.0 °F - 28.4 °F 23% 30.23 in 10.0 mi WNW 15.0 mph 20.7 mph N/A   Light Drizzle
12:57 PM 68.0 °F - 28.4 °F 23% 30.22 in 10.0 mi NW 11.5 mph 21.9 mph N/A   Clear
12:58 PM 68.0 °F - 28.4 °F 23% 30.17 in 10.0 mi NW 12.7 mph 21.9 mph 0.00 in   Clear
1:58 PM 71.6 °F - 27.7 °F 20% 30.13 in 10.0 mi North 19.6 mph 26.5 mph 0.00 in   Light Drizzle
2:02 PM 71.6 °F - 28.4 °F 20% 30.20 in 10.0 mi North 17.3 mph 23.0 mph N/A   Clear
2:03 PM 71.6 °F - 28.4 °F 20% 30.19 in 10.0 mi North 15.0 mph 23.0 mph N/A   Clear
2:26 PM 71.6 °F - 28.4 °F 20% 30.18 in 10.0 mi NW 18.4 mph 25.3 mph N/A   Clear
2:58 PM 73.8 °F - 27.1 °F 18% 30.11 in 10.0 mi NNW 16.1 mph 23.0 mph 0.00 in   Clear
3:02 PM 73.4 °F - 26.6 °F 18% 30.17 in 10.0 mi North 19.6 mph 26.5 mph N/A   Clear
3:05 PM 75.2 °F - 26.6 °F 17% 30.16 in 10.0 mi NW 17.3 mph 26.5 mph N/A   Clear
3:11 PM 73.4 °F - 26.6 °F 18% 30.16 in 10.0 mi NNW 20.7 mph 27.6 mph N/A   Clear
3:25 PM 75.2 °F - 26.6 °F 17% 30.15 in 10.0 mi NW 18.4 mph 25.3 mph N/A   Clear
3:58 PM 75.4 °F - 26.6 °F 16% 30.07 in 10.0 mi NW 10.4 mph 25.3 mph N/A   Clear
4:12 PM 77.0 °F - 26.6 °F 16% 30.13 in 10.0 mi WNW 17.3 mph 24.2 mph N/A   Clear
4:21 PM 77.0 °F - 28.4 °F 17% 30.13 in 10.0 mi NNW 17.3 mph 25.3 mph N/A   Clear
4:54 PM 77.0 °F - 28.4 °F 17% 30.12 in 10.0 mi NNW 15.0 mph 32.2 mph N/A   Clear
4:58 PM 77.4 °F - 28.2 °F 16% 30.04 in 10.0 mi NNW 21.9 mph 31.1 mph N/A   Clear
5:41 PM 77.0 °F - 26.6 °F 16% 30.10 in 10.0 mi North 12.7 mph 20.7 mph N/A   Clear
5:58 PM 77.7 °F - 27.0 °F 15% 30.04 in 10.0 mi North 20.7 mph 26.5 mph N/A   Clear
6:20 PM 78.8 °F - 28.4 °F 16% 30.10 in 10.0 mi NW 16.1 mph - N/A   Clear
6:58 PM 77.0 °F - 28.0 °F 17% 30.04 in 10.0 mi NNW 15.0 mph 25.3 mph N/A   Clear
7:58 PM 73.2 °F - 28.0 °F 19% 30.06 in 10.0 mi NNW 8.1 mph - N/A   Clear
8:58 PM 65.5 °F - 28.2 °F 25% 30.08 in 10.0 mi West 2.3 mph - N/A   Clear
9:58 PM 52.2 °F - 33.6 °F 49% 30.11 in 10.0 mi SSW 4.6 mph - N/A   Clear
10:58 PM 60.3 °F - 31.3 °F 34% 30.09 in 10.0 mi Calm Calm - N/A   Clear
11:58 PM 55.9 °F - 32.2 °F 41% 30.10 in 10.0 mi Variable 4.6 mph - N/A   Clear